DW7572 Weather Reports


time (UTC)temp
C
wind
direction
speed
KPH
gust
KPH
rain 1hr
cm
rain 24hr
cm
rain mn
cm
humidity
%
barometer
mb
20260904060517 24 158 9.7 14.5 0.00 0.64 0.00 95 1009.9
20260904055517 24 158 9.7 14.5 0.00 0.64 0.00 95 1009.9
20260904054516 24 158 8.0 11.3 0.00 0.64 0.00 95 1009.9
20260904053516 24 158 8.0 11.3 0.00 0.64 0.00 95 1009.9
20260904052517 24 158 8.0 11.3 0.00 0.64 0.00 95 1009.8
20260904051516 23 180 4.8 9.7 0.00 0.64 0.00 95 1009.7
20260904050537 24 180 6.4 9.7 0.00 0.64 0.00 94 1009.6
20260904045517 24 180 6.4 9.7 0.00 0.64 0.64 94 1009.6
20260904044517 24 180 8.0 11.3 0.00 0.64 0.64 94 1009.5
20260904043517 24 180 8.0 11.3 0.00 0.64 0.64 94 1009.4
20260904042517 24 180 12.9 17.7 0.00 0.64 0.64 93 1009.4
20260904041518 25 180 11.3 17.7 0.00 0.64 0.64 93 1009.4
20260904040517 25 180 11.3 16.1 0.00 0.64 0.64 93 1009.6
20260904035518 25 180 11.3 16.1 0.00 0.64 0.64 93 1009.8
20260904034517 25 180 8.0 11.3 0.00 0.64 0.64 93 1009.8
20260904033517 25 180 8.0 12.9 0.00 0.64 0.64 94 1009.8
20260904032517 24 180 8.0 12.9 0.00 0.64 0.64 94 1009.8
20260904031518 24 180 6.4 9.7 0.00 0.64 0.64 93 1009.7
20260904030517 25 180 8.0 11.3 0.00 0.64 0.64 93 1009.6
20260904025517 25 180 8.0 12.9 0.00 0.64 0.64 92 1009.5
20260904024517 25 180 9.7 11.3 0.00 0.64 0.64 93 1009.3
20260904023517 25 180 8.0 11.3 0.00 0.64 0.64 92 1009.3
20260904022517 25 180 8.0 12.9 0.00 0.64 0.64 92 1009.1
20260904021517 25 180 8.0 11.3 0.00 0.64 0.64 92 1009.3
20260904020517 25 180 8.0 11.3 0.00 0.64 0.64 93 1009.2
20260904015517 25 158 6.4 8.0 0.00 0.64 0.64 93 1009.0
20260904014522 25 158 8.0 11.3 0.00 0.64 0.64 93 1008.9
20260904013522 25 158 8.0 9.7 0.00 0.64 0.64 93 1008.7
20260904012517 25 158 8.0 9.7 0.00 0.64 0.64 92 1008.5
20260904011537 25 158 4.8 8.0 0.00 0.64 0.64 92 1008.4
20260904010517 25 158 4.8 8.0 0.00 0.64 0.64 90 1008.4
20260904005517 26 158 4.8 8.0 0.00 0.64 0.64 89 1008.4
20260904004517 26 158 6.4 12.9 0.00 0.64 0.64 88 1008.4
20260904003517 26 158 4.8 6.4 0.00 0.64 0.64 87 1008.4
20260904002517 27 158 6.4 8.0 0.00 0.64 0.64 84 1008.3
20260904001516 27 158 6.4 9.7 0.00 0.64 0.64 82 1008.3
20260904000517 27 158 6.4 11.3 0.00 0.64 0.64 81 1008.3
20260903235516 28 158 8.0 11.3 0.00 0.64 0.64 79 1008.3
20260903234518 28 180 11.3 19.3 0.00 0.64 0.64 78 1008.2
20260903233517 28 180 11.3 17.7 0.00 0.64 0.64 77 1007.9
20260903232516 28 180 9.7 16.1 0.00 0.64 0.64 78 1007.9
20260903231516 28 180 9.7 14.5 0.00 0.64 0.64 76 1008.1
20260903230517 28 203 14.5 24.1 0.00 0.64 0.64 75 1008.2
20260903225517 30 203 19.3 29.0 0.00 0.64 0.64 72 1008.6
20260903224517 30 203 20.9 30.6 0.00 0.64 0.64 71 1008.5
20260903223516 30 203 19.3 35.4 0.00 0.64 0.64 71 1008.2
20260903222517 30 203 14.5 20.9 0.00 0.64 0.64 73 1008.1
20260903221516 29 180 11.3 22.5 0.00 0.64 0.64 73 1007.8
20260903220517 30 180 16.1 22.5 0.00 0.64 0.64 71 1007.6
20260903215517 30 180 17.7 25.7 0.00 0.64 0.64 69 1007.5
20260903214517 30 180 17.7 27.4 0.00 0.64 0.64 68 1007.3
20260903213516 30 180 17.7 25.7 0.00 0.64 0.64 67 1007.6
20260903212516 30 203 19.3 32.2 0.00 0.64 0.64 67 1008.0
20260903211537 30 203 17.7 33.8 0.00 0.64 0.64 69 1008.2
20260903210516 30 203 16.1 25.7 0.00 0.64 0.64 69 1008.2
20260903205516 30 180 12.9 19.3 0.00 0.64 0.64 71 1008.6
20260903204516 29 180 14.5 20.9 0.00 0.64 0.64 70 1008.6
20260903203516 29 203 17.7 25.7 0.00 0.64 0.64 69 1008.4
20260903202517 29 203 16.1 25.7 0.00 0.64 0.64 68 1008.4
20260903201536 30 203 20.9 35.4 0.00 0.64 0.64 67 1008.4
20260903200516 30 203 20.9 29.0 0.00 0.64 0.64 66 1008.6
20260903195516 30 203 24.1 37.0 0.00 0.64 0.64 66 1008.5
20260903194536 30 180 24.1 38.6 0.00 0.64 0.64 67 1008.5
20260903193516 30 203 24.1 35.4 0.00 0.64 0.64 67 1008.6
20260903192517 30 180 27.4 46.7 0.00 0.64 0.64 65 1008.6
20260903191536 30 203 29.0 43.5 0.00 0.64 0.64 65 1008.7
20260903190556 30 203 24.1 43.5 0.00 0.64 0.64 67 1008.7
20260903185516 30 180 22.5 38.6 0.00 0.64 0.64 68 1008.8
20260903184517 30 203 27.4 40.2 0.00 0.64 0.64 67 1008.8
20260903183556 30 180 22.5 40.2 0.00 0.64 0.64 71 1009.0
20260903182516 29 203 24.1 37.0 0.00 0.64 0.64 71 1009.0
20260903181516 28 180 24.1 40.2 0.00 0.64 0.64 72 1009.2
20260903180517 28 180 20.9 35.4 0.00 0.64 0.64 74 1009.4
20260903175516 28 180 20.9 33.8 0.00 0.64 0.64 75 1009.3
20260903174516 28 180 25.7 46.7 0.00 0.64 0.64 73 1009.4
20260903173516 28 180 19.3 33.8 0.00 0.64 0.64 73 1009.6
20260903172516 27 180 25.7 35.4 0.00 0.64 0.64 73 1009.5
20260903171516 27 180 24.1 37.0 0.00 0.64 0.64 74 1009.5
20260903170515 26 180 22.5 38.6 0.00 0.64 0.64 75 1009.6
20260903165516 27 180 24.1 40.2 0.00 0.64 0.64 72 1009.8
20260903164516 26 180 27.4 41.8 0.00 0.64 0.64 74 1009.5
20260903163516 28 180 25.7 40.2 0.00 0.64 0.64 71 1009.5
20260903162515 28 180 29.0 43.5 0.00 0.64 0.64 70 1009.5
20260903161515 28 180 30.6 46.7 0.00 0.64 0.64 71 1009.7
20260903160516 28 180 32.2 51.5 0.00 0.64 0.64 72 1009.8
20260903155516 27 158 27.4 40.2 0.00 0.64 0.64 74 1009.9
20260903154515 27 180 27.4 41.8 0.00 0.64 0.64 74 1009.9
20260903153515 27 180 24.1 38.6 0.00 0.64 0.64 76 1009.9
20260903152516 27 180 20.9 33.8 0.00 0.64 0.64 78 1009.9
20260903151516 26 180 24.1 45.1 0.00 0.64 0.64 79 1009.9
20260903150515 26 158 19.3 35.4 0.00 0.64 0.64 81 1010.0
20260903145515 26 158 20.9 37.0 0.00 0.64 0.64 80 1010.2
20260903144516 25 158 17.7 30.6 0.00 0.64 0.64 82 1010.1
20260903143516 25 158 20.9 30.6 0.00 0.64 0.64 82 1010.0
20260903142516 25 158 17.7 27.4 0.00 0.64 0.64 83 1009.9
20260903141518 24 158 14.5 24.1 0.00 0.64 0.64 84 1010.0
20260903140538 24 158 14.5 20.9 0.00 0.64 0.64 83 1010.0
20260903135517 24 158 14.5 22.5 0.00 0.64 0.64 82 1009.8
20260903134518 24 158 16.1 24.1 0.00 0.64 0.64 83 1009.8
20260903133517 23 158 14.5 25.7 0.00 0.64 0.64 86 1009.8
20260903132518 22 158 14.5 20.9 0.00 0.64 0.64 90 1010.0
20260903131518 22 158 12.9 20.9 0.00 0.64 0.64 91 1010.1
20260903130517 22 158 9.7 16.1 0.00 0.64 0.64 92 1010.1
20260903125538 22 158 8.0 16.1 0.00 0.64 0.64 91 1010.1
20260903124517 21 158 8.0 14.5 0.00 0.64 0.64 91 1010.0
20260903123517 21 135 6.4 14.5 0.00 0.64 0.64 91 1010.1
20260903122517 21 158 6.4 12.9 0.00 0.64 0.64 90 1010.2
20260903121517 21 135 4.8 14.5 0.00 0.64 0.64 91 1009.9
20260903120517 21 135 6.4 12.9 0.00 0.64 0.64 91 1009.8
20260903115518 21 135 8.0 16.1 0.00 0.64 0.64 91 1009.8
20260903114517 21 158 9.7 16.1 0.00 0.64 0.64 91 1010.1
20260903113517 21 158 11.3 17.7 0.00 0.64 0.64 91 1010.0
20260903112517 21 158 12.9 19.3 0.00 0.64 0.64 91 1009.9
20260903111517 21 158 11.3 19.3 0.03 0.64 0.64 91 1009.8
20260903110518 21 180 12.9 19.3 0.46 0.64 0.64 91 1009.8
20260903105517 21 158 12.9 20.9 0.61 0.64 0.64 92 1009.8
20260903104517 21 158 16.1 24.1 0.64 0.64 0.64 92 1010.0
20260903103629 21 158 16.1 22.5 0.64 0.64 0.64 92 1010.3
20260903102519 21 158 11.3 19.3 0.64 0.64 0.64 92 1011.1
20260903101517 22 158 14.5 22.5 0.61 0.61 0.61 92 1011.4
20260903100518 22 158 12.9 20.9 0.18 0.18 0.18 91 1010.9
20260903095517 23 203 9.7 14.5 0.03 0.03 0.03 93 1010.6
20260903094517 23 180 11.3 16.1 0.00 0.00 0.00 95 1010.6
20260903093517 22 203 6.4 11.3 0.00 0.00 0.00 97 1010.9
20260903092517 22 203 6.4 9.7 0.00 0.00 0.00 97 1011.1
20260903091517 22 225 8.0 11.3 0.00 0.00 0.00 98 1011.2
20260903090517 22 158 11.3 16.1 0.00 0.00 0.00 97 1010.7
20260903085517 22 135 4.8 9.7 0.00 0.00 0.00 98 1010.8
20260903084537 22 135 3.2 4.8 0.00 0.00 0.00 97 1010.8
20260903083517 22 135 3.2 4.8 0.00 0.00 0.00 97 1010.9
20260903082516 22 0.0 0.0 0.00 0.00 0.00 97 1010.7
20260903081517 22 0.0 3.2 0.00 0.00 0.00 97 1010.5
20260903080517 22 0.0 1.6 0.00 0.00 0.00 97 1010.2
20260903075517 22 0.0 1.6 0.00 0.00 0.00 97 1010.3
20260903074517 22 0.0 1.6 0.00 0.00 0.00 97 1010.4
20260903073537 22 0.0 1.6 0.00 0.00 0.00 97 1010.6
20260903072538 22 135 1.6 4.8 0.00 0.00 0.00 96 1010.7
20260903071537 22 135 4.8 6.4 0.00 0.00 0.00 96 1010.7
20260903070516 22 135 3.2 6.4 0.00 0.00 0.00 96 1010.9
20260903065517 22 135 4.8 11.3 0.00 0.00 0.00 96 1010.9
20260903064556 22 135 4.8 11.3 0.00 0.00 0.00 96 1010.8
20260903063517 22 113 4.8 12.9 0.00 0.03 0.00 96 1010.7
20260903062516 22 113 3.2 6.4 0.00 0.03 0.00 96 1010.4
20260903061517 22 113 3.2 6.4 0.00 0.03 0.00 96 1010.5